www.pogodaiklimat.ru

Погода и климат >> Архив погоды >> Россия >> Астраханская область >> Астрахань


АРХИВ ПОГОДЫ в Астрахани

Время (UTC), дата Ветер
(напр.,м/с)
 
Видим.   Явления Облачность Т
(С)
Тd
(С)
f
(%)
Тe
(С)
Тes
(С)
Комфортность P
(гПа)
Po
(гПа)
Тmin
(С)
Tmax
(С)
R
(мм)
R24
(мм)
S
(см)
12 11.08 З 6-12
{15}
10 км пыльный позёмок 1/1 1000 м
[Cu hum]
+26.1 +8.3 32 +26 +29 жарко 1009.8 1012.2
15 11.08 З 5-13
{15}
10 км пыльный позёмок 1/1 600 м
[Cb cap]
+23.8 +7.2 34 +24 +24 комфорт 1010.5 1013.0 +27.4
18 11.08 штиль 0
{10}
10 км ясно +18.3 +10.9 62 +19 +19 холодно 1011.7 1014.2
21 11.08 СЗ 2 10 км ясно +17.7 +9.3 58 +18 +18 прохладно 1013.0 1015.5
00 12.08 ЮЗ 3 10 км 3/0
[Ac trans]
+15.5 +9.4 67 +15 +15 холодно 1013.0 1015.5
03 12.08 З 3 10 км 9/8 1000 м
[Sc Ac trans]
+16.3 +8.8 61 +16 +16 очень
холодно
1013.5 1016.0 +15.0
06 12.08 З 6-12
{11}
10 км 6/3 600 м
[Cb cap Ac trans]
+21.6 +6.9 39 +22 +25 комфорт 1014.2 1016.7
09 12.08 З 6-12
{14}
10 км пыльный позёмок 3/0
[Ac trans]
+24.3 +5.7 30 +24 +29 комфорт 1013.6 1016.0
12 12.08 СЗ 5-12
{13}
10 км пыльный позёмок 8/0
[Ac trans Ci fib]
+25.8 +4.2 25 +25 +28 комфорт 1013.1 1015.5
15 12.08 СЗ 4
{13}
10 км 1/0
[Ci fib]
+24.2 +4.7 28 +24 +24 комфорт 1013.2 1015.7 +26.0
18 12.08 СЗ 2 10 км ясно +20.2 +3.6 33 +21 +21 комфорт 1014.9 1017.4
21 12.08 СЗ 1 10 км ясно +15.9 +7.4 57 +17 +17 холодно 1015.5 1018.0
00 13.08 ЮЗ 1 10 км ясно +13.1 +5.6 60 +13 +13 холодно 1015.9 1018.5
03 13.08 штиль 0 10 км ясно +14.1 +6.0 58 +14 +15 очень
холодно
1016.8 1019.3 +12.2
06 13.08 СЗ 4 10 км ясно +20.8 +5.7 37 +22 +28 комфорт 1017.2 1019.7
09 13.08 З 4-10
{11}
10 км ясно +23.9 +3.3 26 +23 +34 комфорт 1016.3 1018.8
12 13.08 З 5
{12}
10 км 3/0
[Ac trans Ci fib]
+26.5 +1.2 19 +25 +29 комфорт 1015.0 1017.4
15 13.08 СЗ 4 10 км ясно +25.1 +0.1 19 +24 +24 комфорт 1014.8 1017.3 +26.7
18 13.08 З 2
{10}
10 км 1/0
[Ci fib]
+20.1 +1.1 28 +21 +21 комфорт 1016.3 1018.7
21 13.08 СЗ 1 10 км 3/0
[Ci fib]
+15.9 +3.6 44 +17 +17 холодно 1016.3 1018.8
00 14.08 СЗ 1 10 км ясно +14.2 +4.4 52 +15 +15 холодно 1016.3 1018.8
03 14.08 З 2 10 км 1/0
[Ac trans]
+13.9 +3.2 48 +14 +15 очень
холодно
1017.3 1019.8 +13.1
06 14.08 СЗ 3 10 км ясно +23.5 +1.6 24 +23 +31 комфорт 1017.4 1019.9
09 14.08 СЗ 3 10 км ясно +27.1 -0.3 17 +25 +38 комфорт 1016.2 1018.6
12 14.08 С 3 10 км ясно +28.5 -1.2 14 +26 +33 жарко 1015.2 1017.6
15 14.08 СЗ 1 10 км ясно +28.0 +2.4 19 +26 +27 жарко 1014.5 1016.9 +29.1
18 14.08 штиль 0 10 км ясно +18.3 +9.3 56 +19 +19 прохладно 1015.1 1017.6
21 14.08 Ю 2 10 км ясно +19.7 +8.9 50 +21 +21 комфорт 1015.2 1017.7
00 15.08 ЮЗ 2 10 км ясно +18.2 +10.3 60 +19 +19 по сезону 1014.8 1017.3
03 15.08 З 1 10 км ясно +18.4 +9.6 56 +20 +21 прохладно 1015.3 1017.8 +16.8
06 15.08 СЗ 1 10 км ясно +27.5 +5.4 24 +26 +38 жарко 1015.6 1018.0
09 15.08 В 3 10 км ясно +31.7 +6.5 21 +30 +43 жарко 1014.9 1017.3
12 15.08 ЮВ 3 10 км ясно +31.7 +6.2 20 +30 +37 жарко 1013.9 1016.3
15 15.08 ЮВ 3 10 км ясно +27.8 +8.1 29 +28 +28 жарко 1014.1 1016.5 +32.5
18 15.08 В 1 10 км ясно +20.8 +11.2 54 +24 +24 комфорт 1014.8 1017.2
21 15.08 В 2 10 км 3/0
[Ci fib]
+18.4 +13.7 74 +19 +19 прохладно 1014.7 1017.2
00 16.08 В 1 4000 м дымка ясно +17.8 +16.1 90 +19 +19 по сезону 1014.1 1016.6
03 16.08 В 1 10 км ясно +19.4 +16.6 84 +22 +23 комфорт 1013.7 1016.2 +17.4
06 16.08 В 4
{10}
10 км ясно +29.1 +12.8 37 +30 +37 жарко 1013.6 1016.0
09 16.08 В 5
{11}
10 км ясно +31.4 +10.9 28 +31 +39 жарко 1013.0 1015.4
12 16.08 В 4-10
{13}
10 км ясно +31.1 +10.8 29 +31 +37 жарко 1011.8 1014.2
15 16.08 В 2
{10}
10 км ясно +28.0 +11.0 35 +29 +29 жарко 1011.4 1013.8 +31.9
18 16.08 В 1 10 км ясно +22.2 +15.5 66 +26 +26 душно 1012.0 1014.4
21 16.08 СВ 2 10 км ясно +20.3 +15.4 73 +24 +24 комфорт 1011.4 1013.9
00 17.08 В 1 10 км 3/0
[Ac trans]
+18.5 +15.7 84 +20 +20 тепло 1010.7 1013.2
03 17.08 В 1 10 км 3/0
[Ci sp]
+20.2 +16.0 77 +24 +25 комфорт 1011.3 1013.8 +17.4
06 17.08 ЮВ 5-10
{11}
10 км 4/0
[Ac trans Ci fib]
+29.4 +11.1 32 +30 +34 жарко 1011.7 1014.1
09 17.08 ЮВ 5-11
{11}
10 км 9/0
[Ac trans Ci fib]
+32.5 +8.6 23 +31 +35 жарко 1011.7 1014.1
12 17.08 В 3
{11}
10 км 9/8 1000 м
[Sc Ac trans]
+28.4 +14.4 42 +31 +32 душно 1012.2 1014.6
15 17.08 В 3 10 км 3/3 600 м
[Cb cap Ac trans]
+27.4 +12.4 39 +29 +29 жарко 1012.1 1014.5 +32.8
18 17.08 СВ 1 10 км ясно +21.7 +16.9 74 +26 +26 душно 1013.0 1015.5
21 17.08 СВ 1 10 км 4/0
[Ac trans Ci fib]
+19.4 +16.5 83 +22 +22 комфорт 1012.4 1014.8
00 18.08 В 2 10 км 8/0
[Ac trans]
+20.0 +15.6 76 +23 +23 комфорт 1011.5 1013.9
03 18.08 В 1 10 км 9/9 600 м
[Cb cap Ac trans]
+21.3 +17.1 77 +25 +25 комфорт 1011.4 1013.9 +19.0
06 18.08 В 4 10 км 9/6 600 м
[Cb calv Ac trans]
+29.8 +10.4 30 +30 +31 жарко 1012.1 1014.5

 

Местоположение метеостанции Астрахань (Астраханская область, Россия): широта 46.28 долгота 47.98 высота над уровнем моря -21 м.

В архиве по умолчанию представлена погода в Астрахани за последнюю неделю. Архивные данные за месяц целиком и за предыдущие месяцы, начиная с января 2011 года, Вы можете получить, выбрав интересующий диапазон дат из раскрывающегося списка и нажав кнопку "Ввод!".


*Определитесь, кто Вы:
робот инопланетянин человек

Внимание! Время в таблицах - всемирное. Для получения местного времени необходимо прибавить поправку, которая равна 4 ч.

Смотрите также архив погоды в соседних городах и на ближайших метеорологических станциях:

Погода в Зеленге (Астраханская область, Россия) (50 км)
Погода в Досанге (Астраханская область, Россия) (71 км)
Погода в Лимане (Астраханская область, Россия) (79 км)
Погода в Ганюшкино (Атырауская область, Казахстан) (105 км)
Погода в Лагани (Калмыкия, Россия) (109 км)
Погода в Харабали (Астраханская область, Россия) (136 км)
Погода в Утте (Калмыкия, Россия) (151 км)
Погода в Юсте (Калмыкия, Россия) (158 км)
Погода в Исатай (Атырауская область, Казахстан) (170 км)
Погода в Артезиане (Калмыкия, Россия) (177 км)

Пояснения к столбцам:

Ветер - указаны скорость ветра в м/с - средняя за 10 мин, порывы в срок и между сроками (в фигурных скобках) и направление, откуда дует ветер: С - северный, СВ - северо-восточный, В - восточный, ЮВ - юго-восточный, Ю - южный, ЮЗ - юго-западный, З - западный, СЗ - северо-западный.
Видимость - горизонтальная дальность видимости в метрах или километрах. При видимости от 1 до 10 км при отсутствии осадков обычно наблюдается дымка, при ухудшении видимости до 1 км и менее - туман. В сухую погоду видимость может ухудшаться дымом, пылью или мглою.
Явления - указаны атмосферные явления, наблюдавшиеся в срок или в последний час перед сроком; фигурными скобками обозначены явления, наблюдавшиеся между сроками (за 1-3 часа до срока); квадратными скобками обозначены град или гололедные отложения с указанием их диаметра в мм.
Облачность - указаны через наклонную черту общая и нижняя облачность в баллах и высота нижней границы облаков в метрах; квадратными скобками обозначены формы облаков: Ci - перистые, Cs - перисто-слоистые, Cc - перисто-кучевые, Ac - высококучевые, As - высокослоистые, Sc - слоисто-кучевые, Ns - слоисто-дождевые, Cu - кучевые, Cb - кучево-дождевые. Подробнее классификацию облаков см. в Атласе облаков (PDF).
T - Температура воздуха - температура, измеренная на высоте 2 м над землей.
Td - Температура точки росы - температура, при понижении до которой содержащийся в воздухе водяной пар достигнет насыщения.
f - Относительная влажность воздуха - влажноcть воздуха, измеренная на высоте 2 м над землей.
Te - Эффективная температура - температура, которую ощущает одетый по сезону человек в тени. Характеристика душности погоды. При расчете учитывается влияние влажности воздуха и скорости ветра на теплоощущения человека.
Tes - Эффективная температура на солнце - температура, которую ощущает человек, с поправкой на солнечный нагрев. Характеристика знойности погоды. Зависит от высоты солнца над горизонтом, облачности и скорости ветра. Ночью, в пасмурную погоду, а также при ветре 12 м/с и более поправка равна нулю.
P - Атмосферное давление - приведенное к уровню моря атмосферное давление.
Po - Атмосферное давление - измеренное на уровне метеостанции атмосферное давление.
Tmin - Минимальная температура - минимум температуры воздуха на высоте 2 м над землей.
Tmax - Максимальная температура - максимум температуры воздуха на высоте 2 м над землей.
R - Количество осадков - Количество выпавших осадков за период времени, мм. При наведении курсора мыши на число - период времени, за который выпало указанное количество осадков.
R24 - Количество осадков - Количество выпавших осадков за 24 часа, мм.
S - Снежный покров - Высота снежного покрова, см. При наведении курсора мыши на число - состояние снежного покрова и степень покрытия местности в баллах.